Columbia, MO

6:29 PM CST on December 15, 2019 (GMT -0600)
Columbia Regional

Weather History for KCOU - November, 2019

Change the Weather History Date:

Tuesday, November 19, 2019

  Actual Average Record
Temperature  
Mean Temperature 52 °F 43 °F  
Max Temperature 61 °F 52 °F 80 °F (1942)
Min Temperature 43 °F 34 °F 9 °F (1914)
Degree Days  
Heating Degree Days 13 22  
Month to date heating degree days 478 342  
Since 1 July heating degree days 856 707  
Cooling Degree Days 0 0  
Month to date cooling degree days 0 0  
Year to date cooling degree days 1590 1247  
Growing Degree Days 2 (Base 50)    
Moisture  
Dew Point 38 °F    
Average Humidity 64    
Maximum Humidity 89    
Minimum Humidity 39    
Precipitation  
Precipitation 0.00 in 0.11 in 1.17 in (1939)
Month to date precipitation 0.04 2.06  
Year to date precipitation 40.95 38.99  
Snow  
Snow 0.00 in 0.10 in 4.60 in (1972)
Month to date snowfall 1.1 0.4  
Since 1 July snowfall 1.5 0.4  
Since 1 September snowfall 1.5 0.4  
Snow Depth 0.00 in    
Sea Level Pressure  
Sea Level Pressure 29.89 in    
Wind  
Wind Speed 9 mph (West)    
Max Wind Speed 20 mph    
Max Gust Speed 26 mph    
Visibility 10 miles    
Events      
T = Trace of Precipitation, MM = Missing Value Source: NWS Daily Summary

Daily Weather History Graph

Daily Weather History Graph

Search for Another Location

Airport or City:

Astronomy

Nov. 19, 2019 Rise Set
Actual Time 6:55 AM CST 4:52 PM CST
Civil Twilight 6:26 AM CST 5:21 PM CST
Nautical Twilight 5:54 AM CST 5:53 PM CST
Astronomical Twilight 5:22 AM CST 6:25 PM CST
Moon 11:48 PM CST (11/19) 1:06 PM CST (11/19)
Length of Visible Light 10h 54m
Length of Day
9h 57m
Waning Gibbous, 51% of the Moon is Illuminated
Nov 19
Waning Gibbous
Nov 19
Last Quarter
Nov 26
New
Dec 4
First Quarter
Dec 11
Full

Hourly Weather History & Observations

Time (CST) Temp. Windchill Dew Point Humidity Pressure Visibility Wind Dir Wind Speed Gust Speed Precip Events Conditions
12:54 AM 46.0 °F 42.5 °F 39.9 °F 79% 29.71 in 10.0 mi WNW 6.9 mph - N/A   Scattered Clouds
1:54 AM 46.9 °F - 41.0 °F 80% 29.72 in 10.0 mi WNW 11.5 mph - N/A   Clear
2:54 AM 46.9 °F - 41.0 °F 80% 29.72 in 10.0 mi NNW 13.8 mph - N/A   Clear
4:54 AM 43.0 °F 38.2 °F 39.9 °F 89% 29.78 in 10.0 mi NW 8.1 mph - N/A   Clear
5:54 AM 43.0 °F 37.2 °F 39.9 °F 89% 29.81 in 10.0 mi West 10.4 mph - N/A   Clear
6:41 AM 44.1 °F 37.7 °F 41.0 °F 89% 29.83 in 10.0 mi WNW 12.7 mph - N/A   Mostly Cloudy
6:54 AM 45.0 °F 38.5 °F 41.0 °F 86% 29.84 in 10.0 mi WNW 13.8 mph 21.9 mph N/A   Overcast
7:54 AM 46.0 °F 41.0 °F 41.0 °F 83% 29.86 in 10.0 mi WNW 10.4 mph - N/A   Scattered Clouds
8:54 AM 48.0 °F - 42.1 °F 80% 29.88 in 10.0 mi WNW 12.7 mph - N/A   Scattered Clouds
9:54 AM 50.0 °F - 42.1 °F 74% 29.91 in 10.0 mi West 16.1 mph - N/A   Clear
10:54 AM 53.1 °F - 42.1 °F 66% 29.92 in 10.0 mi West 12.7 mph - N/A   Clear
11:54 AM 57.0 °F - 39.9 °F 53% 29.91 in 10.0 mi West 12.7 mph - N/A   Clear
1:54 PM 60.1 °F - 36.0 °F 41% 29.91 in 10.0 mi WNW 15.0 mph - N/A   Clear
2:54 PM 61.0 °F - 36.0 °F 39% 29.91 in 10.0 mi West 10.4 mph - N/A   Clear
3:54 PM 60.1 °F - 35.1 °F 39% 29.94 in 10.0 mi WNW 9.2 mph - N/A   Clear
4:54 PM 55.0 °F - 34.0 °F 45% 29.95 in 10.0 mi WNW 5.8 mph - N/A   Clear
5:54 PM 52.0 °F - 34.0 °F 50% 29.97 in 10.0 mi WSW 3.5 mph - N/A   Clear
6:54 PM 51.1 °F - 33.1 °F 50% 29.98 in 10.0 mi WSW 4.6 mph - N/A   Clear
7:54 PM 50.0 °F - 33.1 °F 52% 29.98 in 10.0 mi Calm Calm - N/A   Clear
8:54 PM 51.1 °F - 33.1 °F 50% 29.99 in 10.0 mi South 3.5 mph - N/A   Clear
10:54 PM 46.0 °F 42.5 °F 33.1 °F 61% 30.01 in 10.0 mi South 6.9 mph - N/A   Clear
11:54 PM 46.9 °F - 33.1 °F 59% 30.02 in 10.0 mi South 5.8 mph - N/A   Mostly Cloudy